Time,TemperatureF,DewpointF,PressureIn,WindDirection,WindDirectionDegrees,WindSpeedMPH,WindSpeedGustMPH,Humidity,HourlyPrecipIn,Conditions,Clouds,dailyrainin,SoftwareType,DateUTC
2013-07-31 00:32:00,59.0,-99.9,-100.00,SE,126,-999.0,-999.0,-999,0.00,,,-99.99,,2013-07-31 04:32:00,
2013-07-31 00:42:00,59.0,-99.9,-100.00,SE,126,-999.0,-999.0,-999,0.00,,,-99.99,,2013-07-31 04:42:00,
2013-07-31 00:52:00,58.0,-99.9,-100.00,SE,126,-999.0,-999.0,-999,0.00,,,-99.99,,2013-07-31 04:52:00,
2013-07-31 01:32:00,58.0,-99.9,-100.00,SE,126,-999.0,-999.0,-999,0.00,,,-99.99,,2013-07-31 05:32:00,
2013-07-31 01:43:00,58.0,-99.9,-100.00,SE,126,-999.0,-999.0,-999,0.00,,,-99.99,,2013-07-31 05:43:00,
2013-07-31 01:52:00,56.0,-99.9,-100.00,SE,126,-999.0,-999.0,-999,0.00,,,-99.99,,2013-07-31 05:52:00,
2013-07-31 02:32:00,56.0,-99.9,-100.00,SE,126,-999.0,-999.0,-999,0.00,,,-99.99,,2013-07-31 06:32:00,
2013-07-31 02:43:00,56.0,-99.9,-100.00,SE,126,-999.0,-999.0,-999,0.00,,,-99.99,,2013-07-31 06:43:00,
2013-07-31 02:52:00,56.0,-99.9,-100.00,SE,126,-999.0,-999.0,-999,0.00,,,-99.99,,2013-07-31 06:52:00,
2013-07-31 03:32:00,56.0,-99.9,-100.00,SE,126,-999.0,-999.0,-999,0.00,,,-99.99,,2013-07-31 07:32:00,
2013-07-31 03:43:00,56.0,-99.9,-100.00,SE,126,-999.0,-999.0,-999,0.00,,,-99.99,,2013-07-31 07:43:00,
2013-07-31 03:52:00,55.0,-99.9,-100.00,SE,126,-999.0,-999.0,-999,0.00,,,-99.99,,2013-07-31 07:52:00,
2013-07-31 04:33:00,55.0,-99.9,-100.00,SE,126,-999.0,-999.0,-999,0.00,,,-99.99,,2013-07-31 08:33:00,
2013-07-31 04:42:00,55.0,-99.9,-100.00,SE,126,-999.0,-999.0,-999,0.00,,,-99.99,,2013-07-31 08:42:00,
2013-07-31 04:52:00,54.0,-99.9,-100.00,SE,126,-999.0,-999.0,-999,0.00,,,-99.99,,2013-07-31 08:52:00,
2013-07-31 05:33:00,54.0,-99.9,-100.00,SE,126,-999.0,-999.0,-999,0.00,,,-99.99,,2013-07-31 09:33:00,
2013-07-31 05:44:00,54.0,-99.9,-100.00,SE,126,-999.0,-999.0,-999,0.00,,,-99.99,,2013-07-31 09:44:00,
2013-07-31 05:52:00,54.0,-99.9,-100.00,SE,126,-999.0,-999.0,-999,0.00,,,-99.99,,2013-07-31 09:52:00,
2013-07-31 06:32:00,54.0,-99.9,-100.00,SE,126,-999.0,-999.0,-999,0.00,,,-99.99,,2013-07-31 10:32:00,
2013-07-31 06:44:00,54.0,-99.9,-100.00,SE,126,-999.0,-999.0,-999,0.00,,,-99.99,,2013-07-31 10:44:00,
2013-07-31 06:52:00,55.0,-99.9,-100.00,SE,126,-999.0,-999.0,-999,0.00,,,-99.99,,2013-07-31 10:52:00,
2013-07-31 07:33:00,55.0,-99.9,-100.00,SE,126,-999.0,-999.0,-999,0.00,,,-99.99,,2013-07-31 11:33:00,
2013-07-31 07:43:00,55.0,-99.9,-100.00,SE,126,-999.0,-999.0,-999,0.00,,,-99.99,,2013-07-31 11:43:00,
2013-07-31 07:52:00,60.0,-99.9,-100.00,SE,126,-999.0,-999.0,-999,0.00,,,-99.99,,2013-07-31 11:52:00,
2013-07-31 08:43:00,60.0,-99.9,-100.00,SE,126,-999.0,-999.0,-999,0.00,,,-99.99,,2013-07-31 12:43:00,
2013-07-31 08:52:00,66.0,-99.9,-100.00,East,82,-999.0,-999.0,-999,0.00,,,-99.99,,2013-07-31 12:52:00,
2013-07-31 09:33:00,66.0,-99.9,-100.00,East,82,-999.0,-999.0,-999,0.00,,,-99.99,,2013-07-31 13:33:00,
2013-07-31 09:43:00,66.0,-99.9,-100.00,East,82,-999.0,-999.0,-999,0.00,,,-99.99,,2013-07-31 13:43:00,
2013-07-31 09:52:00,72.0,-99.9,-100.00,SSW,199,-999.0,6.0,-999,0.00,,,-99.99,,2013-07-31 13:52:00,
2013-07-31 10:34:00,72.0,-99.9,-100.00,SSW,199,-999.0,6.0,-999,0.00,,,-99.99,,2013-07-31 14:34:00,
2013-07-31 10:43:00,72.0,-99.9,-100.00,SSW,199,-999.0,6.0,-999,0.00,,,-99.99,,2013-07-31 14:43:00,
2013-07-31 10:52:00,76.0,-99.9,-100.00,SE,132,-999.0,8.0,-999,0.00,,,-99.99,,2013-07-31 14:52:00,
2013-07-31 11:33:00,76.0,-99.9,-100.00,SE,132,-999.0,8.0,-999,0.00,,,-99.99,,2013-07-31 15:33:00,
2013-07-31 11:44:00,76.0,-99.9,-100.00,SE,132,-999.0,8.0,-999,0.00,,,-99.99,,2013-07-31 15:44:00,
2013-07-31 11:52:00,76.0,-99.9,-100.00,West,263,-999.0,7.0,-999,0.00,,,-99.99,,2013-07-31 15:52:00,
2013-07-31 12:33:00,76.0,-99.9,-100.00,West,263,-999.0,7.0,-999,0.00,,,-99.99,,2013-07-31 16:33:00,
2013-07-31 12:44:00,76.0,-99.9,-100.00,West,263,-999.0,7.0,-999,0.00,,,-99.99,,2013-07-31 16:44:00,
2013-07-31 13:52:00,78.0,-99.9,-100.00,WNW,301,5.0,9.0,-999,0.00,,,-99.99,,2013-07-31 17:52:00,
2013-07-31 14:33:00,78.0,-99.9,-100.00,WNW,301,5.0,9.0,-999,0.00,,,-99.99,,2013-07-31 18:33:00,
2013-07-31 14:43:00,78.0,-99.9,-100.00,WNW,301,5.0,9.0,-999,0.00,,,-99.99,,2013-07-31 18:43:00,
2013-07-31 14:52:00,76.0,-99.9,-100.00,West,268,-999.0,4.0,-999,0.00,,,-99.99,,2013-07-31 18:52:00,
2013-07-31 15:43:00,76.0,-99.9,-100.00,West,268,-999.0,4.0,-999,0.00,,,-99.99,,2013-07-31 19:43:00,
2013-07-31 15:52:00,74.0,-99.9,-100.00,South,170,-999.0,-999.0,-999,0.00,,,-99.99,,2013-07-31 19:52:00,
2013-07-31 16:52:00,74.0,-99.9,-100.00,SW,226,4.0,4.0,-999,0.00,,,-99.99,,2013-07-31 20:52:00,
2013-07-31 17:33:00,74.0,-99.9,-100.00,SW,226,4.0,4.0,-999,0.00,,,-99.99,,2013-07-31 21:33:00,
2013-07-31 17:43:00,74.0,-99.9,-100.00,SW,226,4.0,4.0,-999,0.00,,,-99.99,,2013-07-31 21:43:00,
2013-07-31 17:52:00,73.0,-99.9,-100.00,SE,133,-999.0,2.0,-999,0.00,,,-99.99,,2013-07-31 21:52:00,
2013-07-31 18:33:00,73.0,-99.9,-100.00,SE,133,-999.0,2.0,-999,0.00,,,-99.99,,2013-07-31 22:33:00,
2013-07-31 18:43:00,73.0,-99.9,-100.00,SE,133,-999.0,2.0,-999,0.00,,,-99.99,,2013-07-31 22:43:00,
2013-07-31 18:52:00,73.0,-99.9,-100.00,SW,229,-999.0,-999.0,-999,0.00,,,-99.99,,2013-07-31 22:52:00,
2013-07-31 19:32:00,73.0,-99.9,-100.00,SW,229,-999.0,-999.0,-999,0.00,,,-99.99,,2013-07-31 23:32:00,
2013-07-31 19:43:00,73.0,-99.9,-100.00,SW,229,-999.0,-999.0,-999,0.00,,,-99.99,,2013-07-31 23:43:00,
2013-07-31 19:52:00,71.0,-99.9,-100.00,SW,229,-999.0,-999.0,-999,0.00,,,-99.99,,2013-07-31 23:52:00,
2013-07-31 20:32:00,71.0,-99.9,-100.00,SW,229,-999.0,-999.0,-999,0.00,,,-99.99,,2013-08-01 00:32:00,
2013-07-31 20:43:00,71.0,-99.9,-100.00,SW,229,-999.0,-999.0,-999,0.00,,,-99.99,,2013-08-01 00:43:00,
2013-07-31 20:52:00,68.0,-99.9,-100.00,SW,229,-999.0,-999.0,-999,0.00,,,-99.99,,2013-08-01 00:52:00,
2013-07-31 21:33:00,68.0,-99.9,-100.00,SW,229,-999.0,-999.0,-999,0.00,,,-99.99,,2013-08-01 01:33:00,
2013-07-31 21:43:00,68.0,-99.9,-100.00,SW,229,-999.0,-999.0,-999,0.00,,,-99.99,,2013-08-01 01:43:00,
2013-07-31 21:52:00,66.0,-99.9,-100.00,SW,229,-999.0,-999.0,-999,0.00,,,-99.99,,2013-08-01 01:52:00,
2013-07-31 22:32:00,66.0,-99.9,-100.00,SW,229,-999.0,-999.0,-999,0.00,,,-99.99,,2013-08-01 02:32:00,
2013-07-31 22:43:00,66.0,-99.9,-100.00,SW,229,-999.0,-999.0,-999,0.00,,,-99.99,,2013-08-01 02:43:00,
2013-07-31 22:52:00,64.0,-99.9,-100.00,SW,229,-999.0,-999.0,-999,0.00,,,-99.99,,2013-08-01 02:52:00,
2013-07-31 23:32:00,64.0,-99.9,-100.00,SW,229,-999.0,-999.0,-999,0.00,,,-99.99,,2013-08-01 03:32:00,
2013-07-31 23:43:00,64.0,-99.9,-100.00,SW,229,-999.0,-999.0,-999,0.00,,,-99.99,,2013-08-01 03:43:00,
2013-07-31 23:52:00,63.0,-99.9,-100.00,SW,229,-999.0,-999.0,-999,0.00,,,-99.99,,2013-08-01 03:52:00,